Weather History for KMAO - September, 2013

Change the Weather History Date:

Friday, September 27, 2013

  Actual Average (KFLO) Record (KFLO)
Temperature  
Mean Temperature 67 °F 71 °F  
Max Temperature 77 °F 81 °F 96 °F (1986)
Min Temperature 57 °F 60 °F 47 °F (2001)
Degree Days  
Heating Degree Days 0 1  
Month to date heating degree days 4  
Since 1 July heating degree days 4  
Cooling Degree Days 2 6  
Month to date cooling degree days 269  
Year to date cooling degree days 1939  
Growing Degree Days 17 (Base 50)    
Moisture  
Dew Point 55 °F    
Average Humidity 71    
Maximum Humidity 100    
Minimum Humidity 39    
Precipitation  
Precipitation 0.00 in 0.12 in 1.92 in (2010)
Month to date precipitation 3.32  
Year to date precipitation 33.80  
Sea Level Pressure  
Sea Level Pressure 30.07 in    
Wind  
Wind Speed 7 mph (NNE)    
Max Wind Speed 17 mph    
Max Gust Speed 23 mph    
Visibility 10 miles    
Events      
T = Trace of Precipitation, MM = Missing Value Source: NWS Daily Summary

Daily Weather History Graph

Daily Weather History Graph

Search for Another Location

Airport or City:

Trip Planner

Search our weather history database for the weather conditions in past years. The results will help you decide how hot, cold, wet, or windy it might be!

Date:

Astronomy

Sep. 27, 2013 Rise Set
Actual Time 7:09 AM EDT 7:06 PM EDT
Civil Twilight 6:44 AM EDT 7:31 PM EDT
Nautical Twilight 6:15 AM EDT 8:00 PM EDT
Astronomical Twilight 5:45 AM EDT 8:30 PM EDT
Moon 12:17 AM EDT (9/27) 2:30 PM EDT (9/27)
Length of Visible Light 12h 47m
Length of Day
11h 57m
Last Quarter, 45% of the Moon is Illuminated
Sep 27
Last Quarter
Oct 4
New
Oct 11
First Quarter
Oct 18
Full
Oct 26
Last Quarter

Hourly Weather History & Observations

Time (EDT) Temp. Dew Point Humidity Pressure Visibility Wind Dir Wind Speed Gust Speed Precip Events Conditions
12:15 AM 62.6 °F 55.4 °F 77% 30.00 in 10.0 mi NNE 5.8 mph - N/A   Clear
12:35 AM 62.6 °F 55.4 °F 77% 30.00 in 10.0 mi NNE 5.8 mph - N/A   Clear
12:55 AM 62.6 °F 55.4 °F 77% 30.00 in 10.0 mi NNE 6.9 mph - N/A   Clear
1:15 AM 62.6 °F 55.4 °F 77% 30.00 in 10.0 mi NE 5.8 mph - N/A   Clear
1:35 AM 62.6 °F 55.4 °F 77% 30.00 in 10.0 mi NE 5.8 mph - N/A   Clear
1:55 AM 60.8 °F 55.4 °F 82% 30.00 in 10.0 mi NNE 5.8 mph - N/A   Clear
2:15 AM 60.8 °F 55.4 °F 82% 30.01 in 10.0 mi NNE 6.9 mph - N/A   Clear
2:35 AM 60.8 °F 55.4 °F 82% 30.01 in 10.0 mi NNE 4.6 mph - N/A   Clear
2:55 AM 60.8 °F 57.2 °F 88% 30.00 in 10.0 mi North 4.6 mph - N/A   Clear
3:15 AM 59.0 °F 57.2 °F 94% 30.00 in 10.0 mi North 3.5 mph - N/A   Clear
3:35 AM 60.8 °F 57.2 °F 88% 30.00 in 10.0 mi North 4.6 mph - N/A   Clear
3:55 AM 59.0 °F 57.2 °F 94% 30.00 in 10.0 mi NNW 3.5 mph - N/A   Clear
4:15 AM 59.0 °F 57.2 °F 94% 30.00 in 10.0 mi North 5.8 mph - N/A   Clear
4:35 AM 59.0 °F 55.4 °F 88% 30.00 in 10.0 mi North 4.6 mph - N/A   Clear
4:55 AM 57.2 °F 55.4 °F 94% 30.01 in 10.0 mi North 4.6 mph - N/A   Clear
5:15 AM 57.2 °F 55.4 °F 94% 30.01 in 10.0 mi North 3.5 mph - N/A   Clear
5:35 AM 57.2 °F 55.4 °F 94% 30.02 in 10.0 mi North 4.6 mph - N/A   Clear
5:55 AM 57.2 °F 55.4 °F 94% 30.02 in 10.0 mi North 4.6 mph - N/A   Clear
6:15 AM 57.2 °F 55.4 °F 94% 30.02 in 10.0 mi North 4.6 mph - N/A   Clear
6:35 AM 57.2 °F 55.4 °F 94% 30.03 in 10.0 mi North 4.6 mph - N/A   Clear
6:55 AM 57.2 °F 55.4 °F 94% 30.04 in 10.0 mi North 4.6 mph - N/A   Clear
7:15 AM 57.2 °F 55.4 °F 94% 30.05 in 10.0 mi North 4.6 mph - N/A   Clear
7:35 AM 57.2 °F 55.4 °F 94% 30.05 in 10.0 mi North 5.8 mph - N/A   Clear
7:55 AM 59.0 °F 57.2 °F 94% 30.06 in 10.0 mi North 6.9 mph - N/A   Clear
8:15 AM 59.0 °F 59.0 °F 100% 30.07 in 10.0 mi North 6.9 mph - N/A   Clear
8:35 AM 60.8 °F 59.0 °F 94% 30.08 in 10.0 mi North 9.2 mph - N/A   Clear
8:55 AM 62.6 °F 59.0 °F 88% 30.07 in 10.0 mi NNE 10.4 mph - N/A   Clear
9:15 AM 64.4 °F 60.8 °F 88% 30.08 in 10.0 mi NNE 12.7 mph - N/A   Clear
9:35 AM 66.2 °F 59.0 °F 78% 30.09 in 10.0 mi NNE 10.4 mph - N/A   Clear
9:55 AM 68.0 °F 59.0 °F 73% 30.09 in 10.0 mi NNE 15.0 mph 18.4 mph N/A   Clear
10:15 AM 68.0 °F 59.0 °F 73% 30.10 in 10.0 mi NNE 13.8 mph - N/A   Clear
10:35 AM 69.8 °F 59.0 °F 68% 30.10 in 10.0 mi NE 9.2 mph 18.4 mph N/A   Clear
10:55 AM 71.6 °F 59.0 °F 64% 30.10 in 10.0 mi NNE 13.8 mph 18.4 mph N/A   Scattered Clouds
11:15 AM 71.6 °F 59.0 °F 64% 30.11 in 10.0 mi NNE 16.1 mph 20.7 mph N/A   Mostly Cloudy
11:35 AM 71.6 °F 57.2 °F 60% 30.11 in 10.0 mi NE 13.8 mph - N/A   Mostly Cloudy
11:55 AM 73.4 °F 57.2 °F 57% 30.11 in 10.0 mi NE 17.3 mph 20.7 mph N/A   Scattered Clouds
12:15 PM 73.4 °F 55.4 °F 53% 30.10 in 10.0 mi NNE 16.1 mph 23.0 mph N/A   Scattered Clouds
12:35 PM 75.2 °F 55.4 °F 50% 30.10 in 10.0 mi NNE 10.4 mph 18.4 mph N/A   Clear
12:55 PM 75.2 °F 55.4 °F 50% 30.10 in 10.0 mi NNE 11.5 mph 18.4 mph N/A   Scattered Clouds
1:15 PM 75.2 °F 55.4 °F 50% 30.09 in 10.0 mi NE 10.4 mph 16.1 mph N/A   Scattered Clouds
1:35 PM 75.2 °F 53.6 °F 47% 30.08 in 10.0 mi NNE 10.4 mph 19.6 mph N/A   Scattered Clouds
1:55 PM 77.0 °F 53.6 °F 44% 30.07 in 10.0 mi North 11.5 mph - N/A   Scattered Clouds
2:15 PM 77.0 °F 53.6 °F 44% 30.07 in 10.0 mi North 13.8 mph 19.6 mph N/A   Clear
2:35 PM 77.0 °F 51.8 °F 41% 30.07 in 10.0 mi NNE 15.0 mph 20.7 mph N/A   Clear
2:55 PM 77.0 °F 53.6 °F 44% 30.07 in 10.0 mi NE 11.5 mph 20.7 mph N/A   Scattered Clouds
3:15 PM 77.0 °F 51.8 °F 41% 30.06 in 10.0 mi North 13.8 mph - N/A   Scattered Clouds
3:35 PM 77.0 °F 51.8 °F 41% 30.06 in 10.0 mi NNE 12.7 mph 20.7 mph N/A   Clear
3:55 PM 77.0 °F 51.8 °F 41% 30.06 in 10.0 mi North 11.5 mph - N/A   Scattered Clouds
4:15 PM 77.0 °F 50.0 °F 39% 30.06 in 10.0 mi NNE 15.0 mph 20.7 mph N/A   Scattered Clouds
4:35 PM 77.0 °F 51.8 °F 41% 30.06 in 10.0 mi NNE 13.8 mph 18.4 mph N/A   Scattered Clouds
4:55 PM 77.0 °F 51.8 °F 41% 30.06 in 10.0 mi NE 10.4 mph 17.3 mph N/A   Scattered Clouds
5:15 PM 77.0 °F 51.8 °F 41% 30.07 in 10.0 mi NE 16.1 mph 20.7 mph N/A   Scattered Clouds
5:35 PM 73.4 °F 51.8 °F 47% 30.07 in 10.0 mi North 11.5 mph - N/A   Scattered Clouds
5:55 PM 73.4 °F 53.6 °F 50% 30.07 in 10.0 mi North 11.5 mph - N/A   Scattered Clouds
6:15 PM 73.4 °F 53.6 °F 50% 30.08 in 10.0 mi NNE 8.1 mph - N/A   Mostly Cloudy
6:35 PM 71.6 °F 53.6 °F 53% 30.09 in 10.0 mi NNE 6.9 mph 10.4 mph N/A   Scattered Clouds
6:55 PM 69.8 °F 53.6 °F 56% 30.09 in 10.0 mi NNE 6.9 mph - N/A   Clear
7:15 PM 68.0 °F 53.6 °F 60% 30.10 in 10.0 mi NNE 4.6 mph - N/A   Clear
7:35 PM 66.2 °F 53.6 °F 64% 30.10 in 10.0 mi NNE 5.8 mph - N/A   Clear
7:55 PM 64.4 °F 53.6 °F 68% 30.10 in 10.0 mi NNE 4.6 mph - N/A   Clear
8:15 PM 64.4 °F 53.6 °F 68% 30.11 in 10.0 mi NNE 5.8 mph - N/A   Clear
8:35 PM 64.4 °F 53.6 °F 68% 30.11 in 10.0 mi NNE 3.5 mph - N/A   Clear
8:55 PM 62.6 °F 53.6 °F 72% 30.11 in 10.0 mi NNE 3.5 mph - N/A   Clear
9:15 PM 62.6 °F 53.6 °F 72% 30.12 in 10.0 mi NNE 5.8 mph - N/A   Clear
9:35 PM 62.6 °F 53.6 °F 72% 30.13 in 10.0 mi NNE 4.6 mph - N/A   Clear
9:55 PM 62.6 °F 53.6 °F 72% 30.13 in 10.0 mi NNE 5.8 mph - N/A   Clear
10:15 PM 60.8 °F 53.6 °F 77% 30.14 in 10.0 mi NNE 4.6 mph - N/A   Clear
10:35 PM 60.8 °F 53.6 °F 77% 30.15 in 10.0 mi NNE 4.6 mph - N/A   Clear
10:55 PM 60.8 °F 53.6 °F 77% 30.15 in 10.0 mi North 3.5 mph - N/A   Clear
11:15 PM 59.0 °F 53.6 °F 82% 30.15 in 10.0 mi NNE 4.6 mph - N/A   Clear
11:35 PM 59.0 °F 53.6 °F 82% 30.15 in 10.0 mi NNE 3.5 mph - N/A   Clear
11:55 PM 59.0 °F 53.6 °F 82% 30.15 in 10.0 mi NNE 4.6 mph - N/A   Clear